Wind_Speed
6 6 7 8 10 12 13 14 15 16 17 18 19 20 20 19 20 21 20 20 19 19 19 19 19 20 19 20 20 20 20 20 21 20 20 20 21 21 21 22 22 22 22
7 7 8 8 9 11 13 14 15 16 17 18 19 20 20 20 19 20 21 22 21 21 21 21 21 20 21 21 22 22 22 22 23 24 24 23 24 24 24 25 25 25 26
8 8 9 10 11 12 13 14 15 16 17 18 19 19 20 21 22 22 23 23 23 23 22 23 23 23 23 24 24 24 24 24 25 25 26 26 26 27 27 27 28 28 29
10 10 10 11 12 13 14 14 15 16 17 18 19 19 20 22 23 24 24 24 25 24 24 24 24 25 25 25 25 25 26 26 27 27 28 29 29 30 30 31 31 31 32
12 12 12 12 13 14 14 15 16 16 17 19 20 21 21 22 23 24 24 25 25 26 26 26 25 25 26 27 27 27 28 28 29 29 30 31 31 31 32 33 34 35 36
14 14 14 14 14 15 15 17 17 18 19 19 20 21 21 22 23 24 25 25 26 27 27 27 27 27 27 28 28 29 30 30 31 31 31 33 34 34 35 36 37 38 38
15 15 15 16 17 17 17 18 18 19 19 21 20 21 22 23 23 24 25 26 27 27 28 28 28 28 28 29 30 30 31 32 32 33 34 35 36 36 37 38 38 39 40
16 17 18 18 18 19 19 19 20 21 21 21 21 21 23 23 23 24 25 25 25 26 27 27 27 28 29 30 31 32 34 34 34 36 37 38 40 40 41 41 42 43 44
19 19 19 20 20 20 20 20 21 22 23 22 22 22 22 22 22 24 25 26 26 27 27 27 29 30 31 31 33 34 34 35 36 38 39 40 42 42 42 42 43 44 45
20 21 21 22 22 22 22 22 22 22 23 23 23 23 22 23 23 24 26 28 28 28 28 29 30 32 33 34 35 36 37 37 37 39 39 40 41 42 43 44 46 46 47
22 22 23 23 23 23 23 23 23 23 23 23 24 24 24 25 25 26 28 29 30 30 31 32 33 33 35 36 36 37 38 38 39 39 40 41 43 44 45 46 47 47 47
23 23 23 24 25 24 24 24 24 24 24 23 24 25 25 26 27 28 29 30 31 32 33 34 34 34 34 35 36 36 37 38 39 41 42 43 45 46 47 48 49 49 50
24 24 24 24 24 25 25 25 25 25 24 25 25 25 25 26 28 29 30 30 31 31 31 32 33 33 34 35 36 37 37 39 41 42 44 46 47 48 49 50 50 51 52
25 25 26 26 25 25 25 25 26 26 26 26 26 26 27 27 27 28 30 30 30 31 31 32 34 34 35 37 39 39 40 41 43 44 46 47 48 49 50 50 52 53 54
25 25 25 26 27 28 27 26 26 26 27 27 27 27 27 27 27 28 29 30 31 32 34 34 35 36 37 39 39 40 42 44 45 45 47 48 49 50 51 52 53 54 54
25 24 24 24 24 25 25 26 27 27 28 28 28 28 28 28 28 28 30 31 33 33 34 35 36 37 39 39 40 42 43 44 45 46 47 48 49 50 51 52 52 53 53
24 24 24 23 23 23 24 25 25 26 26 26 26 26 27 27 28 30 31 32 32 33 34 35 36 37 39 40 41 42 43 44 45 46 47 48 49 49 50 50 50 50 50
23 23 22 21 21 21 22 23 23 24 24 25 25 26 28 29 29 30 31 32 32 33 35 36 37 38 39 40 41 42 43 44 45 45 46 47 47 48 48 48 48 47 46
22 21 21 21 21 21 22 22 22 24 25 26 26 27 28 29 29 30 31 32 33 34 36 36 37 38 39 40 41 42 43 43 43 44 45 46 46 46 46 45 44 43 42
20 20 20 20 20 21 21 21 22 23 25 25 26 27 28 29 30 30 31 32 33 34 34 36 37 38 39 40 40 41 42 42 42 43 43 44 44 43 42 41 41 40 40
17 17 18 19 19 20 21 21 22 23 24 25 26 27 28 29 29 30 31 32 33 34 35 36 37 38 38 39 39 40 40 40 41 41 41 41 40 39 38 38 37 37 37
17 18 18 19 20 21 22 23 24 24 25 25 26 27 28 29 30 30 31 32 33 35 35 36 36 36 37 37 37 38 38 39 38 38 37 37 36 35 35 35 34 34 34
17 19 19 20 20 21 22 23 23 24 25 26 27 28 29 30 30 31 32 33 34 34 34 34 34 34 35 35 35 35 36 36 36 35 35 35 34 34 33 33 32 32 32
17 18 19 20 20 21 21 22 23 24 26 27 28 29 29 30 31 32 32 33 33 33 32 32 32 33 33 33 33 33 34 33 33 32 32 32 31 31 30 30 30 29 29
16 17 17 18 20 21 23 24 25 26 27 27 28 29 30 30 30 31 31 31 31 31 31 31 31 31 31 31 31 31 31 30 30 30 29 29 29 28 28 27 27 26 26
17 18 19 21 22 23 24 25 25 26 27 28 28 29 29 30 29 29 29 30 30 29 29 29 29 29 29 29 29 28 28 28 28 27 27 27 26 26 25 25 25 25 25
Wind_Direction
279 261 248 237 224 221 222 223 225 228 231 234 235 237 239 242 243 243 243 247 250 252 252 253 255 256 257 260 261 262 265 267 269 272 275 277 278 279 280 280 282 282 283
271 259 249 240 231 226 225 227 230 231 233 236 239 240 241 243 245 246 249 251 252 253 254 256 258 258 259 261 262 264 266 267 270 273 275 276 277 279 280 281 282 283 284
266 263 254 245 240 235 232 233 236 238 240 241 242 243 244 246 248 249 253 254 254 255 255 256 258 260 262 263 264 265 267 269 271 274 274 275 276 278 279 281 281 282 284
262 260 256 247 242 239 239 239 241 245 245 246 246 247 247 248 249 251 254 257 256 257 258 258 260 263 263 263 264 266 268 271 272 273 273 274 275 277 278 279 281 282 284
264 257 255 251 247 245 244 245 247 249 251 251 251 250 251 251 252 253 254 255 256 258 261 261 261 262 263 263 265 266 268 271 272 272 272 273 275 277 278 279 281 282 283
264 257 254 253 251 250 251 251 252 254 254 256 257 253 253 254 255 256 257 258 258 260 262 263 262 262 263 265 266 267 269 271 272 273 273 275 277 279 280 281 282 282 283
263 260 258 256 253 253 255 255 255 257 258 257 258 257 256 257 258 259 259 262 262 263 264 265 264 263 263 264 267 269 270 271 271 273 275 276 278 280 282 282 282 282 284
265 263 261 260 258 257 257 256 256 257 258 259 260 259 258 260 262 264 265 264 263 264 265 265 265 265 266 266 267 268 270 271 272 273 275 276 277 279 281 281 281 282 283
266 264 263 262 262 262 261 261 261 261 260 260 259 259 261 262 263 265 267 267 268 268 268 268 269 268 268 269 269 270 271 271 272 274 276 277 278 280 281 282 283 285 285
268 267 267 265 264 264 264 263 263 264 261 260 261 260 261 263 265 267 268 269 270 270 271 272 272 272 272 273 272 272 273 273 274 276 277 279 280 281 282 283 285 285 286
268 269 269 266 265 265 264 262 261 263 264 265 265 263 264 266 268 270 269 269 270 270 270 271 273 274 275 276 275 275 275 276 277 278 281 283 284 283 283 284 285 285 285
267 268 269 268 266 265 265 261 262 264 263 265 266 267 267 269 269 270 271 271 271 272 271 272 273 274 277 277 276 277 278 280 281 282 284 285 285 285 285 286 286 286 286
268 267 268 269 267 265 264 261 263 263 264 266 266 268 271 272 272 273 273 273 273 274 275 275 274 276 278 279 281 282 282 283 285 286 286 287 287 288 288 288 287 287 287
269 269 268 269 267 265 265 265 266 267 266 267 269 268 270 271 272 272 272 274 275 276 278 279 280 282 283 283 283 283 285 287 287 288 288 288 288 289 289 289 289 290 290
269 271 269 268 267 265 263 264 266 267 266 266 268 270 271 272 274 275 276 276 277 279 281 280 281 282 284 285 285 286 286 288 288 288 289 290 290 291 291 291 292 292 292
270 272 270 269 268 267 263 263 265 268 269 270 271 271 272 275 277 279 280 281 283 284 284 283 284 285 287 287 288 288 289 289 289 291 291 291 292 292 293 294 294 294 294
268 269 268 268 269 269 268 268 269 271 271 273 274 274 274 276 277 279 281 282 284 284 284 285 286 287 289 290 291 291 292 292 293 293 294 294 294 294 295 296 296 296 296
266 267 267 267 269 271 272 273 272 272 271 273 272 274 278 279 280 282 284 285 285 286 288 289 290 291 292 293 293 293 294 294 295 295 295 295 296 296 297 297 298 297 297
264 265 266 268 270 272 275 274 272 272 275 276 277 279 282 283 284 285 286 286 287 289 290 291 293 293 294 294 294 295 297 297 296 296 297 298 298 298 298 298 298 298 297
262 264 266 268 270 273 273 272 274 276 279 281 283 285 287 287 287 288 289 290 291 292 293 294 295 295 296 296 297 297 298 298 298 299 299 300 300 299 299 299 299 299 299
262 266 268 269 272 273 276 278 280 283 286 288 289 291 292 292 292 292 293 295 296 297 298 297 297 297 297 297 297 298 299 300 301 301 301 301 301 300 300 300 300 300 301
266 269 272 274 276 279 281 282 284 287 290 292 293 294 295 296 296 297 298 298 299 300 299 298 297 297 297 297 299 300 301 302 303 303 304 304 303 302 302 302 303 303 304
272 273 274 277 280 282 284 286 288 290 291 293 296 297 298 299 299 300 300 301 301 300 299 298 299 300 301 302 302 303 304 305 305 305 305 305 305 304 304 305 305 306 306
277 278 280 282 284 287 289 290 292 294 296 297 298 299 301 301 301 301 302 302 301 300 300 301 301 302 303 304 305 305 306 307 307 308 308 307 307 307 307 307 308 308 309
283 286 289 292 293 294 295 295 296 297 299 300 301 302 303 302 302 301 301 301 301 301 302 303 304 305 306 307 307 308 309 310 310 310 310 310 310 310 310 310 311 312 313
288 292 296 298 298 298 298 298 299 300 301 302 303 303 302 302 301 301 301 302 303 304 305 307 308 309 309 310 310 311 312 312 312 313 313 313 313 314 314 314 314 315 315
Height
5853 5853 5853 5853 5853 5855 5857 5859 5861 5863 5865 5867 5868 5870 5872 5873 5874 5876 5877 5878 5879 5879 5880 5881 5881 5881 5882 5882 5882 5882 5882 5882 5881 5881 5880 5880 5879 5878 5878 5877 5876 5875 5874
5852 5851 5851 5852 5852 5853 5855 5857 5858 5860 5861 5863 5864 5866 5867 5869 5870 5871 5872 5873 5874 5875 5875 5876 5876 5876 5876 5877 5877 5877 5877 5876 5876 5875 5875 5874 5873 5873 5872 5871 5870 5868 5867
5850 5850 5850 5850 5851 5852 5853 5854 5856 5857 5858 5859 5860 5861 5863 5864 5865 5866 5867 5868 5869 5869 5870 5870 5870 5870 5871 5871 5871 5871 5871 5870 5870 5869 5868 5868 5867 5866 5865 5864 5863 5861 5860
5848 5848 5847 5848 5848 5849 5850 5851 5853 5853 5854 5855 5856 5857 5858 5859 5860 5861 5862 5862 5863 5863 5863 5864 5864 5864 5864 5864 5864 5864 5864 5864 5863 5862 5862 5861 5860 5859 5858 5857 5855 5854 5852
5845 5845 5845 5845 5846 5846 5847 5848 5849 5850 5851 5851 5851 5852 5853 5854 5854 5855 5856 5856 5856 5857 5857 5857 5857 5857 5857 5857 5857 5857 5857 5857 5856 5855 5854 5853 5852 5851 5850 5848 5847 5845 5843
5842 5842 5842 5842 5843 5843 5844 5844 5845 5845 5846 5846 5846 5847 5847 5848 5849 5849 5850 5850 5850 5850 5850 5850 5850 5850 5850 5850 5850 5850 5850 5849 5849 5848 5846 5845 5844 5842 5841 5839 5838 5836 5834
5838 5838 5839 5839 5839 5840 5840 5840 5840 5841 5841 5841 5841 5841 5842 5842 5843 5843 5843 5844 5844 5844 5844 5843 5843 5843 5843 5843 5843 5842 5842 5841 5840 5839 5838 5836 5835 5833 5832 5830 5828 5826 5823
5834 5834 5835 5835 5835 5835 5835 5835 5835 5836 5836 5836 5836 5836 5836 5836 5837 5837 5837 5837 5837 5837 5836 5836 5836 5836 5835 5835 5835 5834 5833 5832 5831 5830 5829 5827 5825 5823 5821 5819 5817 5815 5812
5830 5830 5830 5830 5830 5830 5830 5830 5830 5830 5830 5830 5830 5830 5830 5830 5830 5831 5831 5830 5830 5829 5829 5829 5828 5828 5828 5827 5826 5825 5824 5822 5821 5819 5818 5816 5814 5812 5810 5808 5805 5803 5800
5825 5825 5824 5824 5824 5824 5824 5824 5824 5824 5824 5824 5824 5824 5824 5824 5824 5824 5824 5823 5823 5822 5822 5821 5820 5820 5819 5818 5817 5815 5814 5812 5811 5809 5807 5805 5803 5801 5799 5796 5793 5790 5787
5819 5819 5819 5818 5818 5818 5818 5818 5818 5818 5818 5818 5818 5818 5818 5818 5818 5817 5816 5816 5815 5814 5813 5812 5811 5811 5809 5808 5807 5805 5804 5802 5800 5798 5796 5794 5791 5789 5786 5783 5780 5777 5774
5813 5813 5812 5812 5812 5812 5812 5811 5811 5812 5812 5811 5811 5811 5811 5811 5810 5810 5809 5808 5807 5806 5805 5803 5802 5801 5800 5798 5797 5795 5793 5791 5789 5787 5784 5781 5779 5776 5773 5770 5767 5763 5760
5806 5806 5806 5805 5805 5804 5804 5804 5805 5805 5805 5805 5804 5804 5804 5803 5803 5802 5801 5800 5798 5797 5796 5794 5793 5791 5790 5788 5786 5784 5782 5780 5778 5775 5772 5769 5766 5762 5759 5756 5752 5749 5745
5799 5799 5799 5798 5797 5797 5797 5797 5797 5798 5798 5797 5797 5796 5796 5795 5794 5794 5793 5791 5790 5789 5787 5785 5784 5782 5780 5778 5776 5774 5771 5769 5766 5763 5760 5756 5752 5749 5745 5741 5737 5733 5729
5792 5792 5791 5791 5790 5789 5789 5790 5790 5790 5790 5790 5790 5789 5788 5788 5787 5786 5784 5783 5782 5780 5778 5776 5774 5772 5770 5768 5765 5763 5760 5757 5753 5750 5746 5743 5738 5734 5730 5726 5722 5717 5712
5785 5784 5784 5784 5783 5782 5782 5783 5783 5783 5783 5783 5782 5782 5780 5780 5779 5778 5777 5775 5773 5771 5769 5767 5764 5762 5760 5757 5754 5751 5748 5744 5740 5737 5733 5729 5724 5720 5716 5711 5706 5701 5696
5778 5778 5778 5777 5777 5776 5776 5776 5776 5776 5776 5775 5775 5774 5773 5772 5771 5770 5768 5766 5764 5762 5760 5757 5754 5751 5749 5746 5742 5739 5736 5732 5728 5723 5719 5715 5710 5705 5700 5695 5690 5685 5680
5772 5772 5772 5771 5771 5771 5770 5769 5769 5769 5769 5768 5767 5766 5766 5764 5763 5761 5759 5757 5755 5752 5750 5747 5744 5741 5738 5734 5731 5727 5723 5719 5714 5710 5705 5701 5696 5691 5686 5681 5676 5671 5666
5766 5766 5766 5766 5765 5765 5764 5763 5763 5762 5762 5761 5760 5759 5758 5756 5754 5752 5750 5748 5745 5742 5739 5737 5733 5730 5727 5723 5719 5715 5711 5706 5702 5697 5692 5687 5682 5677 5672 5667 5662 5658 5653
5760 5760 5760 5760 5760 5759 5758 5757 5757 5756 5755 5754 5753 5751 5749 5748 5745 5743 5741 5738 5735 5732 5729 5726 5723 5719 5715 5711 5707 5703 5698 5694 5689 5684 5679 5674 5669 5664 5659 5655 5650 5646 5641
5755 5755 5755 5755 5754 5754 5753 5752 5751 5750 5748 5747 5745 5743 5741 5739 5736 5734 5731 5729 5725 5722 5718 5715 5711 5707 5703 5699 5695 5691 5686 5681 5677 5672 5667 5662 5657 5652 5648 5643 5639 5634 5630
5750 5750 5750 5749 5748 5748 5747 5745 5744 5743 5741 5739 5737 5735 5733 5730 5728 5725 5722 5719 5715 5712 5708 5704 5700 5696 5692 5688 5684 5679 5674 5670 5665 5660 5656 5651 5646 5642 5637 5633 5628 5624 5620
5745 5745 5744 5743 5742 5741 5740 5739 5737 5735 5734 5731 5729 5727 5724 5721 5718 5715 5712 5709 5705 5701 5697 5693 5690 5686 5681 5677 5673 5668 5664 5659 5655 5650 5645 5641 5636 5632 5627 5623 5619 5615 5610
5740 5739 5738 5737 5736 5735 5733 5732 5730 5728 5726 5723 5721 5718 5715 5712 5709 5706 5702 5699 5695 5691 5687 5684 5680 5676 5671 5667 5663 5659 5654 5649 5645 5640 5636 5631 5627 5623 5619 5614 5610 5606 5602
5734 5733 5732 5731 5730 5728 5726 5724 5722 5720 5718 5715 5712 5710 5706 5703 5700 5697 5693 5689 5686 5682 5678 5674 5670 5666 5662 5658 5654 5650 5645 5641 5636 5632 5628 5623 5619 5615 5611 5607 5603 5599 5595
5729 5728 5727 5725 5723 5721 5719 5717 5715 5712 5710 5707 5704 5701 5697 5694 5691 5687 5684 5680 5676 5673 5669 5665 5661 5658 5654 5650 5646 5641 5637 5633 5629 5625 5620 5616 5612 5608 5604 5600 5596 5592 5588